Location: Poughquag
(41.6090°N, 73.6820°W)
Time: 06:59:57
(UTC-05:00)

Altair - Pass Details

Date: 07 December 2023
Orbit: 1501 x 1682 km, 47.2° (Epoch: 02 March)

Event Time Altitude Azimuth Distance (km) Brightness Sun altitude
Rises 11:18:33 0° 286° (WNW) 4,768 9.9 25.4°
Reaches altitude 10° 11:21:43 10° 289° (WNW) 3,758 9.4 25.5°
Maximum altitude 11:31:09 67° 12° (NNE) 1,636 7.8 25.7°
Drops below altitude 10° 11:40:19 10° 94° (E) 3,655 9.6 25.7°
Sets 11:43:21 0° 98° (E) 4,631 10.1 25.8°
